Regional Weather Roundup
Issued by NWS Albany, NY

Home | Current Version | Previous Version | Text Only | Print | Product List | Glossary On
Versions: 1 2 3 4 5 6 7 8 9 10 11 12 13 14 15 16 17 18 19 20 21 22 23 24 25 26 27 28
000
ASUS41 KALY 311810
RWRALY

NEW YORK STATE HOURLY WEATHER ROUNDUP
NATIONAL WEATHER SERVICE ALBANY NY
200 PM EDT TUE MAY 31 2016

NOTE: "FAIR" INDICATES FEW OR NO CLOUDS BELOW 12,000 FEET WITH NO
SIGNIFICANT WEATHER AND/OR NO OBSTRUCTIONS TO VISIBILITY.

NYZ032-033-038>043-046>054-057>066-NYZ062>081-082-084-311900-
EAST


CITY           SKY/WX    TMP DP  RH WIND       PRES   REMARKS
ALBANY         MOSUNNY   81  50  33 W21G29    29.93F
GLENS FALLS    SUNNY     83  48  29 SW9       29.89F
POUGHKEEPSIE   MOSUNNY   84  56  38 NE3       29.92F
MONTGOMERY     MOSUNNY   85  57  38 VRB6      29.93F
WHITE PLAINS   MOSUNNY   81  61  50 S6        29.94F
ISLIP          MOSUNNY   77  66  68 S10       29.94F
NEW YORK CITY  MOSUNNY   83  64  52 E5        29.93F
CENTRAL PARK   MOSUNNY   85  60  42 CALM      29.97F
$$

NYZ005>009-017-018-044>046-055-056-311900-
CENTRAL


CITY           SKY/WX    TMP DP  RH WIND       PRES   REMARKS
FULTON         SUNNY     80  49  33 W16G25    29.99S
SYRACUSE       MOSUNNY   79  48  33 NW7G21    29.97S
ROME           PTSUNNY   78  53  41 W15G24    29.96F
ELMIRA         MOSUNNY   84  53  34 N9        29.97F
BINGHAMTON     MOSUNNY   77  54  44 NW9G17    30.01S
MONTICELLO     MOSUNNY   79  54  41 W7        30.00F
$$

NYZ026>034-041>043-087-311900-
NORTH


CITY           SKY/WX    TMP DP  RH WIND       PRES   REMARKS
WATERTOWN      SUNNY     75  49  39 SW17G26   29.95F
FORT DRUM      NOT AVBL
MASSENA        PTSUNNY   78  49  35 W14G25    29.90S
SARANAC LAKE   MOSUNNY   75  42  30 W9G28     29.92S
PLATTSBURGH    SUNNY     81  49  32 W10G20    29.86F
$$

NYZ001>004-010>016-019>021-085-311900-
WEST


CITY           SKY/WX    TMP DP  RH WIND       PRES   REMARKS
NIAGARA FALLS  PTSUNNY   82  46  28 NW15      30.00S
BUFFALO        PTSUNNY   79  44  28 NW13      30.00F
DUNKIRK        MOSUNNY   78  46  32 NW6       30.03F
JAMESTOWN      CLOUDY    75  54  46 W5        30.05F
WELLSVILLE       N/A     76  57  51 W10       30.06F
ROCHESTER      MOSUNNY   81  52  36 NW12      29.99S
PENN YAN       SUNNY     79  53  40 NW10      30.00F
$$

             KEY
       WCI = WIND CHILL INDEX
       VSB = VISIBILITY
       HX  = HEAT INDEX
$$




USA.gov is the U.S. government's official web portal to all federal, state and local government web resources and services.